Temp
51 50 51 51 52 53 53 53 53 53 55 58 59 63 65 65 66 66 64 65 64 63 62 63 63 64 64 64 63 63 62 61 60 60 61 60 60 60
50 49 48 48 48 50 52 52 51 53 52 56 59 62 64 64 66 65 64 64 63 62 62 62 61 61 61 61 61 61 61 60 59 58 58 57 57 59
48 48 48 48 46 46 48 50 49 50 49 53 55 58 62 63 64 63 64 63 62 61 62 61 59 59 59 59 59 59 59 59 57 57 56 55 55 58
48 47 48 52 45 44 44 46 47 49 48 48 52 53 58 62 62 62 62 62 61 62 61 60 59 58 58 57 57 57 57 56 55 54 53 53 54 56
47 46 46 46 44 43 44 45 46 51 48 48 48 51 56 61 61 61 61 61 62 62 60 59 58 58 57 57 56 56 55 53 52 51 51 52 52 53
46 46 46 45 44 44 46 45 47 45 46 47 47 48 51 58 59 59 59 60 60 61 60 58 57 57 57 57 56 56 53 52 50 49 50 49 48 49
44 46 47 50 55 53 49 46 45 44 45 46 46 46 47 49 51 54 57 59 59 59 57 56 55 55 55 56 57 57 54 52 50 49 50 48 47 47
41 43 44 49 49 51 52 53 52 45 45 45 45 47 48 47 48 48 54 56 56 59 57 55 55 53 54 55 55 53 52 52 50 49 49 47 46 46
41 42 44 50 46 45 49 51 51 52 53 50 48 49 48 47 45 45 48 52 54 58 58 55 54 53 54 53 53 51 51 50 49 49 48 47 46 45
49 49 44 42 44 45 47 45 47 51 51 52 48 48 50 49 46 46 47 51 57 58 59 56 54 54 53 53 52 51 50 48 48 48 47 46 45 44
52 50 48 47 46 45 47 46 45 49 51 50 49 47 46 47 48 46 47 48 50 53 58 57 54 50 50 51 49 50 49 48 47 48 47 46 45 45
51 51 48 48 44 43 43 44 43 42 40 41 43 42 44 44 48 48 46 45 49 50 56 57 53 52 49 48 49 49 48 48 47 47 47 47 47 50
48 48 49 46 44 43 43 41 44 43 40 39 39 39 40 41 43 44 46 47 47 51 55 57 56 54 50 46 48 48 49 47 47 47 46 46 46 47
45 46 46 44 43 42 42 42 42 43 37 37 37 37 38 40 41 43 45 47 51 52 55 56 54 55 50 47 47 47 46 48 48 47 47 47 46 46
44 45 44 43 42 43 43 43 43 37 35 35 36 37 39 41 41 42 44 45 48 53 55 55 56 55 53 51 48 46 45 47 49 48 48 49 49 49
46 45 44 44 43 43 43 44 45 44 42 39 38 39 41 39 40 41 41 43 44 49 55 57 58 58 55 53 51 46 48 45 49 48 50 51 50 49
41 41 41 41 41 41 42 43 43 43 42 42 39 43 46 46 44 42 41 43 44 46 50 54 54 56 54 55 51 50 48 48 51 50 50 48 47 47
37 37 38 39 39 40 40 41 42 43 43 43 41 41 45 46 47 44 41 42 42 46 49 51 52 52 52 52 53 51 50 49 51 51 51 47 45 45
35 36 37 38 39 40 41 41 40 42 43 43 42 43 45 46 45 46 42 42 43 44 47 50 53 53 50 49 50 49 50 51 51 49 49 49 46 44
35 35 37 38 38 39 40 40 41 42 41 42 43 43 44 46 46 47 46 42 43 46 48 52 52 53 52 50 49 49 44 52 52 48 43 42 40 43
35 35 37 38 38 39 40 41 41 41 42 42 43 43 44 45 45 46 46 41 41 44 45 45 52 44 52 51 48 47 47 47 52 49 45 44 43 43
34 35 35 37 38 38 40 41 41 41 42 42 43 43 44 45 45 46 46 45 44 44 44 47 50 51 52 51 48 45 44 44 45 45 44 46 47 44
34 35 35 36 38 39 39 40 41 41 42 43 43 44 44 44 46 46 46 46 46 44 44 45 50 51 51 50 46 46 44 45 47 45 42 44 45 47
MSLP
1019.54 1019.45 1019.42 1019.27 1019.02 1018.78 1018.43 1018.05 1017.44 1016.17 1015.08 1013.71 1013.31 1012.30 1011.56 1010.96 1010.63 1010.27 1011.00 1010.82 1011.05 1010.74 1010.80 1011.14 1012.21 1012.65 1013.39 1014.22 1014.63 1015.10 1015.30 1015.53 1015.72 1016.06 1016.02 1016.03 1016.04 1015.62
1019.83 1019.77 1019.65 1019.47 1019.18 1018.93 1018.65 1018.24 1017.88 1017.36 1016.20 1014.88 1013.99 1013.05 1012.03 1011.01 1010.59 1010.70 1010.49 1010.51 1011.11 1010.47 1010.83 1011.11 1012.23 1013.01 1013.63 1014.44 1014.64 1015.26 1015.51 1015.47 1016.01 1016.02 1016.01 1015.93 1016.11 1015.67
1020.01 1019.97 1019.84 1019.60 1019.35 1018.99 1018.69 1018.33 1018.01 1017.60 1016.94 1015.38 1014.51 1013.46 1012.45 1011.70 1011.06 1011.05 1010.63 1010.73 1011.15 1011.42 1011.60 1011.57 1012.26 1013.17 1013.89 1014.41 1014.65 1015.53 1015.44 1015.65 1015.95 1015.89 1015.92 1015.95 1016.11 1015.75
1020.24 1020.11 1019.96 1019.63 1019.43 1019.10 1018.79 1018.46 1018.05 1017.56 1017.26 1016.23 1014.99 1014.15 1013.17 1012.24 1011.83 1011.59 1011.30 1011.31 1011.34 1011.37 1011.79 1012.06 1012.94 1013.50 1014.01 1014.34 1014.95 1015.58 1015.43 1015.89 1015.83 1015.85 1015.71 1016.07 1016.00 1015.93
1020.33 1020.30 1020.06 1019.71 1019.43 1019.05 1018.70 1018.30 1017.79 1017.27 1016.98 1016.62 1015.72 1014.73 1013.59 1012.86 1012.40 1011.99 1011.72 1011.57 1011.35 1011.49 1012.08 1012.17 1012.92 1013.65 1014.02 1014.43 1014.99 1015.43 1015.53 1015.94 1015.90 1015.75 1015.96 1016.04 1016.13 1016.42
1020.35 1020.30 1019.86 1019.53 1019.30 1018.81 1018.38 1018.00 1017.51 1017.13 1016.65 1016.32 1015.81 1015.11 1014.31 1013.44 1013.13 1012.78 1012.15 1011.89 1011.71 1011.69 1012.17 1012.60 1013.37 1013.85 1014.16 1014.47 1014.52 1014.97 1015.61 1016.09 1016.18 1015.89 1015.84 1016.17 1016.42 1016.73
1020.00 1020.03 1019.64 1019.22 1018.78 1018.28 1017.96 1017.62 1017.38 1016.99 1016.57 1016.23 1015.85 1015.41 1014.96 1014.52 1014.15 1013.79 1013.05 1012.25 1011.59 1011.85 1012.44 1012.54 1013.12 1013.85 1014.19 1014.40 1014.43 1014.80 1015.41 1016.01 1016.17 1016.00 1015.89 1016.56 1016.54 1016.85
1019.71 1019.47 1019.17 1018.92 1018.56 1018.15 1017.66 1017.18 1016.92 1016.70 1016.45 1016.28 1015.96 1015.58 1015.27 1015.17 1014.97 1014.70 1013.78 1012.39 1011.54 1011.33 1011.95 1012.56 1012.61 1013.40 1013.73 1013.98 1014.17 1014.61 1015.21 1015.84 1015.92 1015.90 1016.10 1016.85 1016.79 1017.08
1019.33 1019.16 1018.95 1018.82 1018.35 1018.34 1017.53 1017.11 1016.69 1016.28 1016.10 1015.81 1015.92 1015.91 1015.77 1015.55 1015.59 1015.15 1014.72 1013.81 1012.21 1011.29 1011.68 1012.07 1012.58 1012.89 1013.20 1013.74 1014.07 1014.42 1015.00 1015.64 1015.63 1015.85 1016.32 1017.04 1017.07 1017.32
1018.42 1018.38 1018.66 1018.67 1018.52 1018.21 1017.72 1017.33 1017.07 1016.56 1016.32 1016.19 1016.19 1016.23 1016.13 1015.72 1015.43 1014.98 1014.54 1013.71 1012.60 1011.45 1011.49 1011.72 1012.19 1012.63 1012.99 1013.26 1013.69 1014.15 1014.84 1015.35 1015.66 1015.71 1016.51 1017.18 1017.31 1017.48
1018.00 1017.84 1018.21 1018.12 1018.34 1018.15 1017.98 1017.72 1017.31 1016.89 1016.69 1016.57 1016.34 1016.02 1015.73 1015.57 1015.13 1014.75 1013.98 1013.55 1012.82 1011.78 1011.70 1011.90 1012.20 1012.77 1013.25 1013.27 1013.63 1014.05 1014.62 1015.09 1015.59 1015.76 1016.69 1017.25 1017.39 1017.43
1017.83 1017.57 1017.73 1017.75 1017.85 1017.95 1017.96 1017.78 1017.53 1017.27 1017.08 1016.45 1016.16 1016.11 1015.80 1015.39 1014.86 1014.63 1014.31 1014.01 1013.32 1012.09 1011.63 1011.59 1012.30 1012.50 1013.26 1013.59 1013.77 1014.25 1014.72 1015.08 1015.52 1015.74 1016.65 1017.19 1017.32 1017.13
1017.50 1017.39 1017.39 1017.38 1017.46 1017.53 1017.55 1017.55 1017.37 1017.24 1016.99 1016.82 1016.46 1016.06 1015.47 1015.07 1014.57 1014.06 1013.88 1013.57 1013.16 1012.57 1012.03 1011.86 1011.91 1012.60 1013.15 1013.77 1013.97 1014.49 1014.60 1015.21 1015.48 1015.89 1016.61 1017.03 1017.14 1017.07
1017.13 1017.01 1017.09 1017.23 1017.27 1017.23 1017.17 1016.97 1016.91 1016.75 1016.54 1016.47 1016.32 1015.88 1015.26 1014.68 1014.15 1013.69 1013.24 1012.89 1012.62 1012.31 1011.85 1011.84 1012.04 1012.05 1013.01 1013.60 1013.87 1014.31 1014.87 1015.11 1015.11 1015.83 1016.43 1016.68 1016.86 1016.73
1016.63 1016.63 1016.67 1016.67 1016.66 1016.58 1016.47 1016.41 1016.36 1016.29 1016.35 1016.17 1015.89 1015.42 1014.88 1014.14 1013.77 1013.39 1012.85 1012.43 1011.95 1011.35 1010.81 1010.77 1011.37 1011.45 1012.12 1012.75 1012.97 1013.51 1014.26 1014.89 1015.18 1015.41 1016.09 1016.13 1016.21 1016.19
1016.37 1016.21 1016.20 1016.13 1015.97 1015.81 1015.73 1015.63 1015.51 1015.49 1015.51 1015.41 1015.26 1014.69 1014.09 1013.67 1013.42 1012.96 1012.87 1012.37 1011.92 1011.01 1010.21 1010.38 1010.59 1011.05 1011.56 1011.91 1012.31 1012.85 1013.19 1013.88 1014.77 1015.19 1015.58 1015.73 1015.99 1016.03
1016.33 1015.94 1015.62 1015.39 1015.19 1015.03 1014.85 1014.74 1014.65 1014.63 1014.63 1014.56 1014.56 1014.15 1013.49 1013.03 1012.79 1012.46 1012.37 1012.10 1011.75 1011.03 1010.39 1010.57 1010.45 1010.56 1010.93 1011.40 1011.82 1012.38 1012.78 1013.46 1014.03 1014.62 1015.19 1015.82 1016.26 1016.34
1015.89 1015.39 1014.89 1014.57 1014.36 1014.21 1014.03 1013.90 1013.86 1013.85 1013.78 1013.66 1013.75 1013.67 1013.14 1012.70 1012.38 1012.08 1012.07 1011.89 1011.64 1011.06 1010.56 1010.22 1010.31 1010.67 1010.99 1011.16 1011.24 1011.46 1012.47 1013.05 1013.45 1014.33 1014.88 1015.63 1016.31 1016.70
1015.31 1014.69 1014.29 1013.96 1013.69 1013.51 1013.37 1013.27 1013.18 1013.15 1013.17 1013.16 1013.10 1013.01 1012.80 1012.43 1012.10 1011.74 1011.60 1011.44 1011.11 1010.67 1010.26 1010.14 1010.06 1010.31 1010.76 1011.07 1011.34 1011.15 1011.45 1012.43 1012.93 1014.23 1014.81 1015.22 1015.91 1016.65
1014.73 1014.21 1013.69 1013.50 1013.26 1013.01 1012.83 1012.76 1012.68 1012.58 1012.57 1012.48 1012.42 1012.37 1012.23 1011.97 1011.62 1011.34 1011.13 1011.18 1010.99 1010.62 1010.25 1009.84 1009.85 1009.83 1009.99 1010.45 1011.11 1011.53 1011.30 1011.86 1012.24 1013.59 1014.93 1015.75 1016.39 1016.76
1014.26 1013.87 1013.47 1013.05 1012.77 1012.45 1012.29 1012.16 1012.03 1011.97 1011.91 1011.84 1011.81 1011.74 1011.59 1011.40 1011.24 1011.12 1010.99 1010.79 1010.72 1010.60 1010.32 1009.97 1009.42 1009.39 1009.82 1010.03 1010.65 1011.00 1012.01 1011.73 1012.22 1013.17 1014.35 1015.31 1016.12 1016.63
1013.97 1013.59 1013.25 1012.84 1012.31 1012.09 1011.72 1011.55 1011.44 1011.37 1011.33 1011.23 1011.18 1011.19 1011.11 1011.02 1010.93 1010.86 1010.74 1010.64 1010.61 1010.51 1010.31 1009.89 1009.53 1009.38 1009.65 1009.86 1010.51 1011.33 1012.07 1012.99 1013.16 1013.75 1014.06 1014.48 1014.93 1015.51
1013.69 1013.15 1012.87 1012.50 1012.05 1011.68 1011.35 1011.13 1010.87 1010.84 1010.76 1010.69 1010.65 1010.64 1010.63 1010.60 1010.52 1010.47 1010.41 1010.31 1010.27 1010.29 1010.13 1009.89 1009.35 1009.21 1009.40 1009.75 1010.25 1011.43 1011.99 1012.57 1013.08 1013.84 1014.84 1014.75 1014.47 1014.33
Wind_Speed
5 5 4 3 4 4 3 3 4 6 5 4 4 6 8 6 3 3 3 4 4 5 14 15 12 14 12 11 10 8 8 7 5 3 6 9 13 12
4 6 5 4 4 4 4 4 3 3 4 3 4 6 11 7 6 4 3 9 5 10 13 17 14 13 13 11 9 7 8 7 4 3 6 9 11 12
5 6 6 5 4 4 4 3 3 3 4 5 4 7 7 12 7 5 4 5 3 1 7 13 15 13 11 10 9 7 8 6 4 2 6 9 11 13
5 6 6 7 6 5 4 5 4 3 2 8 6 6 7 7 4 3 1 1 3 9 11 13 12 10 10 10 8 8 7 5 5 4 6 8 10 12
5 6 6 6 6 4 5 5 4 4 3 3 5 3 4 4 5 3 3 0 2 10 7 11 14 12 11 11 11 7 6 5 5 5 5 8 10 11
5 5 6 6 7 7 6 6 6 5 4 3 4 4 3 4 3 5 3 2 1 4 8 8 8 8 9 10 11 9 7 6 4 4 4 6 8 9
4 5 5 9 15 11 5 6 5 3 4 4 3 2 3 4 5 6 5 4 2 3 2 3 5 4 5 7 6 10 9 7 6 3 4 5 6 7
4 5 5 9 9 14 13 11 7 4 4 2 2 2 3 2 4 5 7 2 3 3 4 3 5 5 5 6 8 9 10 9 8 4 3 3 5 5
6 3 4 4 6 7 10 10 9 8 5 4 4 5 4 4 4 2 3 6 1 3 1 3 4 5 5 5 10 9 10 11 10 5 1 0 3 3
6 2 2 4 4 6 7 7 6 4 6 6 4 4 5 7 5 4 5 6 5 2 2 2 3 2 3 3 9 10 11 12 10 8 4 4 4 0
5 3 2 3 4 7 5 6 7 3 7 9 8 10 12 11 9 5 6 5 4 1 2 2 1 2 1 1 1 9 12 13 11 9 7 7 8 3
8 5 9 6 6 3 3 3 5 5 8 11 9 6 7 9 13 5 4 5 4 3 3 2 3 3 2 2 1 3 5 11 11 10 9 9 7 3
6 5 4 5 7 7 5 4 3 4 7 6 6 6 6 5 6 5 5 5 4 5 4 1 2 1 2 1 1 2 4 5 4 4 10 11 10 5
6 4 3 5 6 9 7 9 9 8 3 5 5 6 6 6 5 5 6 6 6 9 8 3 2 3 3 2 3 3 2 3 3 3 4 5 8 5
4 6 9 10 11 9 10 10 9 3 4 4 6 6 5 5 6 5 6 7 8 8 7 5 5 3 5 3 4 4 5 5 4 4 4 4 4 3
8 6 6 10 11 10 9 8 6 5 6 6 6 6 6 4 4 3 3 3 3 4 4 6 6 6 3 4 4 4 4 5 7 5 4 2 2 2
11 7 7 7 7 6 6 6 6 6 6 6 5 7 6 5 5 3 3 3 3 3 1 2 3 4 2 5 3 4 6 3 8 7 5 3 3 3
7 7 7 7 7 7 7 7 6 8 6 7 5 6 6 5 5 4 3 3 3 3 2 2 3 3 2 2 3 7 6 5 8 7 7 3 3 2
7 7 7 7 7 7 7 6 6 6 6 6 5 6 6 5 5 5 3 3 3 3 3 3 4 3 4 4 1 7 6 8 9 7 5 2 4 3
6 7 7 6 7 7 6 6 6 6 6 6 6 6 6 6 5 4 3 3 2 3 2 2 3 5 5 5 5 3 4 8 10 8 4 2 5 10
6 6 7 7 6 7 6 6 6 6 5 5 5 5 5 4 2 3 3 4 2 2 4 2 3 7 3 5 3 3 3 8 5 6 7 5 3 3
6 6 6 7 7 6 7 6 6 6 5 5 5 5 4 4 4 5 4 3 3 3 4 4 2 4 4 3 4 5 4 5 17 20 18 5 5 5
7 7 6 7 7 7 6 6 6 6 6 6 5 4 4 4 4 4 4 4 3 3 3 3 2 4 4 3 7 7 8 9 5 7 6 14 4 3
Wind_Direction
31 24 21 353 1 353 346 334 319 326 319 336 329 334 317 285 301 75 69 68 265 222 162 140 142 129 130 139 144 151 137 117 91 40 346 340 328 333
29 19 13 346 350 348 342 338 329 304 302 333 322 313 324 302 327 319 79 75 229 208 161 133 131 128 137 151 148 150 138 115 104 33 1 347 331 334
19 17 356 344 342 333 324 323 324 335 300 303 297 309 328 317 319 347 21 82 64 123 155 130 130 137 147 158 152 163 137 127 106 35 14 347 335 332
12 5 343 342 330 323 322 311 292 298 288 300 310 328 318 312 317 332 58 110 147 155 159 137 138 143 156 163 172 172 136 145 112 62 21 350 336 343
9 353 328 327 317 311 308 298 287 295 285 275 295 304 302 352 340 309 306 27 110 143 148 153 152 165 170 176 178 170 148 147 137 87 18 2 352 339
348 322 308 310 296 293 293 287 299 308 292 286 289 295 315 330 335 327 307 272 139 132 140 141 147 176 187 201 177 166 167 166 153 105 23 6 4 343
323 297 312 314 322 317 302 284 294 290 303 302 296 306 320 344 354 339 309 273 192 144 141 149 147 170 207 232 221 176 176 168 166 133 29 350 13 345
301 305 319 334 350 340 333 325 276 258 282 273 285 293 296 314 351 336 322 285 276 182 151 186 150 180 198 210 206 173 168 165 164 140 37 327 30 344
273 300 325 337 360 325 334 352 349 359 349 352 357 14 340 357 316 297 309 318 61 291 251 167 167 195 191 210 209 175 161 159 155 149 167 160 70 348
264 226 255 309 340 357 346 344 349 14 9 10 17 333 317 314 300 276 275 280 273 245 175 275 148 176 155 185 205 174 156 156 158 152 176 168 136 286
301 207 225 253 321 360 343 338 325 346 356 339 320 314 314 311 305 321 320 338 309 320 160 233 115 109 50 150 11 169 154 155 162 161 181 174 161 196
299 289 212 242 236 274 308 307 316 330 333 328 326 309 292 297 298 262 268 278 286 313 254 78 160 181 111 4 61 121 135 157 170 171 205 213 210 267
286 285 276 271 258 233 250 251 251 290 308 304 294 290 293 279 281 277 258 237 254 257 289 84 150 99 25 98 237 133 146 146 156 177 221 241 254 246
272 267 253 262 253 252 261 245 262 299 300 297 295 286 281 283 275 275 277 274 254 252 259 178 257 141 129 158 212 140 144 156 142 164 200 220 239 247
230 241 243 254 258 266 256 253 270 267 287 280 280 272 257 257 282 275 281 277 272 257 249 238 218 207 160 187 197 165 137 186 192 153 189 187 175 168
279 277 270 263 254 250 254 254 246 251 256 262 267 269 266 263 268 256 260 281 255 268 214 240 214 204 183 188 171 164 152 168 172 162 168 123 88 80
298 279 270 261 254 248 247 249 243 231 243 253 257 283 270 263 261 260 255 276 264 290 284 204 85 112 78 171 157 179 160 145 164 154 137 118 83 103
290 278 269 257 254 257 255 255 250 248 245 250 238 257 277 263 263 266 239 242 254 257 267 217 144 128 101 118 21 163 154 164 150 148 133 121 115 87
275 267 266 263 263 262 258 253 254 247 247 249 241 241 264 271 260 259 249 248 271 260 254 224 169 166 164 209 157 61 152 169 143 140 135 145 133 140
281 285 266 267 267 262 259 256 256 248 245 244 238 235 242 246 251 266 280 225 260 298 280 211 193 195 198 189 181 146 40 161 161 146 121 83 66 100
291 297 293 277 275 265 260 255 247 245 247 242 233 235 242 229 235 266 282 283 288 277 287 276 243 186 126 101 87 75 15 112 127 153 132 117 116 141
293 287 291 291 277 277 273 250 252 248 240 239 236 234 239 234 235 234 241 251 253 259 273 279 224 156 171 155 142 118 110 89 90 84 57 65 162 169
301 286 288 285 284 282 260 277 244 249 241 240 232 222 227 232 237 236 251 245 245 262 268 269 228 190 181 143 141 145 140 135 141 107 47 13 48 145